When you browse on this site, cookies collect data to enhance your experience and personalize the content and advertising you see.
Visit our Privacy Policy to learn more. By continuing to use the site, you agree to this use of cookies and data.
  • In Hungary
  • List of Countries
  • For 7 days
  • Water Temperature
  • Satellite Maps
  • Weather Map
  • News
  • Weather Widgets
  • user-avatar
    Login

    Hourly Weather Achaea

    Today, 25 April, Thursday

    Time Temperature Precipitation Wind Pressure Humidity
    00:00 +13°C° 0.1 mm 2 mps 689 mmHg 68%
    01:00 +12°C° 0 mm 1 mps 689 mmHg 65%
    02:00 +12°C° 0 mm 1 mps 689 mmHg 63%
    03:00 +12°C° 0 mm 1 mps 689 mmHg 61%
    04:00 +12°C° 0 mm 1 mps 689 mmHg 59%
    05:00 +14°C° 0 mm 1 mps 689 mmHg 59%
    06:00 +15°C° 0 mm 2 mps 690 mmHg 59%
    07:00 +17°C° 0 mm 2 mps 690 mmHg 58%
    08:00 +18°C° 0.1 mm 2 mps 691 mmHg 54%
    09:00 +19°C° 0.1 mm 2 mps 691 mmHg 50%
    10:00 +21°C° 0.1 mm 2 mps 691 mmHg 46%
    11:00 +20°C° 0.2 mm 2 mps 691 mmHg 49%
    12:00 +20°C° 0.2 mm 2 mps 691 mmHg 53%
    13:00 +20°C° 0.2 mm 2 mps 691 mmHg 56%
    14:00 +19°C° 0.1 mm 2 mps 690 mmHg 58%
    15:00 +19°C° 0.1 mm 2 mps 690 mmHg 60%
    16:00 +19°C° 0.1 mm 2 mps 690 mmHg 61%
    17:00 +18°C° 0 mm 2 mps 689 mmHg 66%
    18:00 +16°C° 0 mm 2 mps 689 mmHg 70%
    19:00 +15°C° 0 mm 2 mps 688 mmHg 74%
    20:00 +15°C° 0.1 mm 2 mps 688 mmHg 74%
    21:00 +14°C° 0.1 mm 2 mps 689 mmHg 74%
    22:00 +14°C° 0.1 mm 1 mps 689 mmHg 74%
    23:00 +14°C° 0.1 mm 2 mps 689 mmHg 74%

    Tomorrow, 26 April, Friday

    Time Temperature Precipitation Wind Pressure Humidity
    00:00 +13°C° 0.1 mm 2 mps 688 mmHg 74%
    01:00 +13°C° 0.1 mm 2 mps 688 mmHg 74%
    02:00 +13°C° 0.2 mm 2 mps 688 mmHg 72%
    03:00 +13°C° 0.2 mm 2 mps 688 mmHg 70%
    04:00 +13°C° 0.2 mm 2 mps 687 mmHg 69%
    05:00 +14°C° 0 mm 2 mps 688 mmHg 66%
    06:00 +15°C° 0 mm 2 mps 688 mmHg 64%
    07:00 +17°C° 0 mm 2 mps 689 mmHg 61%
    08:00 +19°C° 0 mm 2 mps 689 mmHg 54%
    09:00 +21°C° 0 mm 1 mps 689 mmHg 47%
    10:00 +23°C° 0 mm 1 mps 690 mmHg 40%
    11:00 +24°C° 0 mm 2 mps 689 mmHg 40%
    12:00 +24°C° 0 mm 2 mps 689 mmHg 40%
    13:00 +25°C° 0 mm 2 mps 689 mmHg 40%
    14:00 +24°C° 0 mm 2 mps 689 mmHg 43%
    15:00 +23°C° 0 mm 2 mps 688 mmHg 45%
    16:00 +23°C° 0 mm 1 mps 688 mmHg 48%
    17:00 +21°C° 0 mm 1 mps 687 mmHg 55%
    18:00 +19°C° 0 mm 1 mps 687 mmHg 62%
    19:00 +14°C° 0 mm 0 mps 686 mmHg 69%
    20:00 +14°C° 0 mm 0 mps 686 mmHg 70%
    21:00 +15°C° 0 mm 1 mps 687 mmHg 72%
    22:00 +14°C° 0 mm 1 mps 687 mmHg 73%
    23:00 +14°C° 0 mm 1 mps 686 mmHg 73%

    Day after tomorrow, 27 April, Saturday

    Time Temperature Precipitation Wind Pressure Humidity
    00:00 +14°C° 0 mm 1 mps 686 mmHg 74%
    01:00 +14°C° 0 mm 1 mps 686 mmHg 74%
    02:00 +13°C° 0 mm 1 mps 685 mmHg 75%
    03:00 +13°C° 0 mm 1 mps 685 mmHg 75%
    04:00 +13°C° 0 mm 1 mps 685 mmHg 76%
    05:00 +14°C° 0 mm 1 mps 685 mmHg 71%
    06:00 +15°C° 0 mm 0 mps 685 mmHg 67%
    07:00 +17°C° 0 mm 0 mps 686 mmHg 62%
    08:00 +20°C° 0 mm 1 mps 686 mmHg 58%
    09:00 +22°C° 0 mm 1 mps 686 mmHg 53%
    10:00 +23°C° 0 mm 1 mps 687 mmHg 48%
    11:00 +23°C° 0 mm 2 mps 686 mmHg 48%
    12:00 +23°C° 0 mm 2 mps 686 mmHg 48%
    13:00 +23°C° 0 mm 2 mps 686 mmHg 49%
    14:00 +23°C° 0 mm 2 mps 685 mmHg 50%
    15:00 +21°C° 0 mm 3 mps 685 mmHg 52%
    16:00 +20°C° 0 mm 3 mps 684 mmHg 54%
    17:00 +18°C° 0 mm 2 mps 684 mmHg 62%
    18:00 +16°C° 0 mm 2 mps 684 mmHg 69%
    19:00 +14°C° 0 mm 1 mps 684 mmHg 76%
    20:00 +14°C° 0 mm 1 mps 684 mmHg 77%
    21:00 +13°C° 0 mm 1 mps 684 mmHg 79%
    22:00 +12°C° 0 mm 1 mps 684 mmHg 80%
    23:00 +12°C° 0 mm 1 mps 683 mmHg 80%

    28 April, Sunday

    Time Temperature Precipitation Wind Pressure Humidity
    00:00 +12°C° 0 mm 1 mps 683 mmHg 80%
    01:00 +11°C° 0 mm 1 mps 683 mmHg 80%
    02:00 +11°C° 0 mm 1 mps 683 mmHg 81%
    03:00 +11°C° 0 mm 1 mps 683 mmHg 82%
    04:00 +10°C° 0 mm 1 mps 682 mmHg 82%
    05:00 +12°C° 0 mm 1 mps 683 mmHg 77%
    06:00 +13°C° 0 mm 1 mps 683 mmHg 71%
    07:00 +15°C° 0 mm 1 mps 684 mmHg 65%
    08:00 +16°C° 0 mm 1 mps 684 mmHg 57%
    09:00 +17°C° 0 mm 2 mps 684 mmHg 48%
    10:00 +19°C° 0 mm 2 mps 685 mmHg 40%
    11:00 +19°C° 0 mm 2 mps 685 mmHg 39%
    12:00 +19°C° 0 mm 2 mps 685 mmHg 37%
    13:00 +20°C° 0 mm 3 mps 685 mmHg 36%
    14:00 +19°C° 0 mm 3 mps 684 mmHg 38%
    15:00 +18°C° 0 mm 3 mps 684 mmHg 40%
    16:00 +18°C° 0 mm 3 mps 684 mmHg 42%
    17:00 +16°C° 0 mm 2 mps 683 mmHg 51%
    18:00 +13°C° 0 mm 2 mps 683 mmHg 61%
    19:00 +10°C° 0 mm 2 mps 683 mmHg 70%
    20:00 +11°C° 0 mm 1 mps 683 mmHg 72%
    21:00 +10°C° 0 mm 1 mps 683 mmHg 75%
    22:00 +10°C° 0 mm 1 mps 683 mmHg 77%
    23:00 +9°C° 0 mm 1 mps 683 mmHg 76%

    29 April, Monday

    Time Temperature Precipitation Wind Pressure Humidity
    00:00 +9°C° 0 mm 1 mps 683 mmHg 75%
    01:00 +9°C° 0 mm 1 mps 683 mmHg 75%
    02:00 +8°C° 0 mm 1 mps 682 mmHg 75%
    03:00 +8°C° 0 mm 1 mps 682 mmHg 75%
    04:00 +8°C° 0 mm 1 mps 682 mmHg 75%
    05:00 +10°C° 0 mm 1 mps 683 mmHg 70%
    06:00 +11°C° 0 mm 1 mps 683 mmHg 64%
    07:00 +13°C° 0 mm 1 mps 683 mmHg 59%
    08:00 +14°C° 0 mm 2 mps 684 mmHg 53%
    09:00 +16°C° 0 mm 2 mps 684 mmHg 46%
    10:00 +17°C° 0 mm 3 mps 685 mmHg 40%
    11:00 +18°C° 0 mm 3 mps 684 mmHg 40%
    12:00 +18°C° 0 mm 3 mps 684 mmHg 41%
    13:00 +18°C° 0 mm 3 mps 684 mmHg 41%
    14:00 +18°C° 0 mm 3 mps 684 mmHg 45%
    15:00 +17°C° 0 mm 3 mps 683 mmHg 48%
    16:00 +17°C° 0 mm 3 mps 683 mmHg 51%
    17:00 +15°C° 0 mm 2 mps 682 mmHg 60%
    18:00 +13°C° 0 mm 2 mps 682 mmHg 69%
    19:00 +10°C° 0 mm 2 mps 682 mmHg 78%
    20:00 +9°C° 0 mm 2 mps 682 mmHg 80%
    21:00 +9°C° 0 mm 2 mps 682 mmHg 83%
    22:00 +8°C° 0 mm 2 mps 682 mmHg 85%
    23:00 +8°C° 0 mm 2 mps 682 mmHg 85%

    30 April, Tuesday

    Time Temperature Precipitation Wind Pressure Humidity
    00:00 +7°C° 0 mm 2 mps 682 mmHg 84%
    01:00 +7°C° 0 mm 2 mps 681 mmHg 83%
    02:00 +7°C° 0 mm 2 mps 681 mmHg 82%
    03:00 +7°C° 0 mm 2 mps 681 mmHg 81%
    04:00 +7°C° 0 mm 1 mps 681 mmHg 80%
    05:00 +9°C° 0 mm 1 mps 681 mmHg 73%
    06:00 +11°C° 0 mm 1 mps 682 mmHg 65%
    07:00 +13°C° 0 mm 1 mps 682 mmHg 57%
    08:00 +14°C° 0 mm 2 mps 682 mmHg 52%
    09:00 +15°C° 0 mm 2 mps 683 mmHg 46%
    10:00 +17°C° 0 mm 3 mps 683 mmHg 40%
    11:00 +17°C° 0 mm 3 mps 683 mmHg 40%
    12:00 +17°C° 0 mm 4 mps 683 mmHg 40%
    13:00 +17°C° 0 mm 4 mps 683 mmHg 39%
    14:00 +17°C° 0 mm 4 mps 682 mmHg 43%
    15:00 +15°C° 0 mm 4 mps 682 mmHg 46%
    16:00 +14°C° 0 mm 4 mps 682 mmHg 49%
    17:00 +13°C° 0 mm 3 mps 682 mmHg 59%
    18:00 +11°C° 0 mm 3 mps 681 mmHg 69%
    19:00 +9°C° 0 mm 2 mps 681 mmHg 79%
    20:00 +8°C° 0 mm 2 mps 681 mmHg 82%
    21:00 +9°C° 0 mm 1 mps 681 mmHg 85%
    22:00 +8°C° 0 mm 1 mps 682 mmHg 89%
    23:00 +8°C° 0 mm 1 mps 681 mmHg 88%
    Show more